This demonstration page uses our WeatherBlox Daily Observations layout. Learn more.

Left ArrowRight Arrow

39.29038, -76.61219

Hourly Observations for May 5, 2021

Temp ( °F °C ) Dew Point ( °F °C ) Humidity (%) Winds ( mph kmh ) Pressure ( in mb ) Visibility ( mi km ) Precip ( " mm )
12:54 am 00:54 Mostly Cloudy 66 18.9 63 17.2 90 90 SW 3 6 29.70 1006 10 16 N/A
1:54 am 01:54 Partly Cloudy 65 18.3 62 16.7 90 90 WSW 5 7 29.69 1005 10 16 N/A
2:54 am 02:54 Partly Cloudy with Mist and Fog 64 17.8 61 16.1 90 90 N N/A 29.68 1005 6 10 N/A
3:54 am 03:54 Mostly Cloudy with Mist and Fog 64 17.8 62 16.7 93 93 SSE 3 6 29.67 1005 3 4 N/A
4:06 am 04:06 Partly Cloudy with Mist and Fog 63 17.2 61 16.1 93 93 N N/A 29.67 1005 5 8 N/A
4:27 am 04:27 Mostly Cloudy with Mist and Fog 64 17.8 61 16.1 90 90 N N/A 29.67 1005 2 3 N/A
4:54 am 04:54 Cloudy with Mist and Fog 62 16.7 61 16.1 96 96 N N/A 29.67 1005 3 4 N/A
5:05 am 05:05 Cloudy with Mist and Fog 64 17.8 61 16.1 90 90 S 3 6 29.68 1005 4 6 N/A
5:30 am 05:30 Cloudy with Mist and Fog 64 17.8 62 16.7 93 93 N N/A 29.68 1005 4 6 N/A
5:54 am 05:54 Cloudy with Mist and Fog 64 17.8 62 16.7 93 93 N N/A 29.67 1005 4 6 N/A
6:14 am 06:14 Mostly Cloudy with Mist and Fog 64 17.8 61 16.1 90 90 N N/A 29.67 1005 5 8 N/A
6:31 am 06:31 Cloudy with Mist and Fog 65 18.3 62 16.7 90 90 N N/A 29.67 1005 5 8 N/A
6:54 am 06:54 Cloudy with Mist and Fog 65 18.3 63 17.2 93 93 N N/A 29.67 1005 4 6 N/A
7:17 am 07:17 Cloudy with Mist and Fog 65 18.3 63 17.2 93 93 N N/A 29.69 1005 3 4 N/A
7:54 am 07:54 Cloudy with Mist and Fog 65 18.3 63 17.2 93 93 W 3 6 29.70 1006 2 2 0.01 0.25
8:12 am 08:12 Cloudy with Light Rain 66 18.9 64 17.8 93 93 N N/A 29.70 1006 2 2 0.01 0.25
8:54 am 08:54 Cloudy with Light Rain 67 19.4 64 17.8 91 91 N N/A 29.69 1005 3 4 0.03 0.76
9:24 am 09:24 Cloudy with Light Rain 67 19.4 64 17.8 91 91 SW 3 6 29.71 1006 2 2 0.04 1.02
9:35 am 09:35 Cloudy with Light Rain 67 19.4 64 17.8 91 91 N N/A 29.70 1006 3 4 0.09 2.29
9:54 am 09:54 Cloudy with Light Rain 67 19.4 64 17.8 91 91 W 9 15 29.70 1006 3 5 0.10 2.54
9:56 am 09:56 Cloudy with Light Rain 67 19.4 64 17.8 91 91 W 7 11 29.71 1006 3 5 0.00 0.00
10:05 am 10:05 Cloudy with Rain 67 19.4 65 18.3 93 93 WSW 3 6 29.70 1006 3 5 0.09 2.29
10:20 am 10:20 Cloudy with Light Rain 68 20 66 18.9 93 93 SE 5 7 29.68 1005 6 10 0.09 2.29
10:54 am 10:54 Mostly Cloudy 69 20.6 66 18.9 90 90 N N/A 29.67 1005 7 11 0.09 2.29
11:54 am 11:54 Mostly Cloudy with Light Rain 71 21.7 66 18.9 84 84 WNW 8 13 29.67 1005 3 5 0.03 0.76
12:06 pm 12:06 Mostly Cloudy 73 22.8 69 20.6 87 87 NW 8 13 29.67 1005 10 16 0.00 0.00
12:54 pm 12:54 Mostly Cloudy 77 25 64 17.8 64 64 W 10 17 29.66 1005 10 16 0.00 0.00
1:54 pm 13:54 Partly Cloudy 78 25.6 60 15.6 54 54 NW 9 15 29.66 1004 10 16 N/A
2:54 pm 14:54 Mostly Cloudy 77 25 59 15 54 54 W 16 26 29.67 1005 10 16 N/A
3:54 pm 15:54 Mostly Cloudy 74 23.3 59 15 60 60 WNW 14 22 29.68 1005 10 16 N/A
4:54 pm 16:54 Mostly Cloudy 74 23.3 55 12.8 52 52 WNW 16 26 29.71 1006 10 16 N/A
5:54 pm 17:54 Mostly Cloudy 72 22.2 52 11.1 50 50 NW 18 30 29.76 1008 10 16 N/A
6:54 pm 18:54 Partly Cloudy 68 20 48 8.9 49 49 NNW 18 30 29.79 1009 10 16 N/A
7:54 pm 19:54 Partly Cloudy 64 17.8 46 7.8 52 52 WNW 14 22 29.84 1010 10 16 N/A
8:54 pm 20:54 Partly Cloudy 61 16.1 42 5.6 50 50 WNW 15 24 29.88 1012 10 16 N/A
9:54 pm 21:54 Mostly Clear 59 15 41 5 51 51 WNW 16 26 29.91 1013 10 16 N/A
10:54 pm 22:54 Mostly Clear 57 13.9 40 4.4 53 53 WNW 12 19 29.93 1014 10 16 N/A
11:54 pm 23:54 Mostly Clear 57 13.9 36 2.2 45 45 WNW 15 24 29.94 1014 10 16 N/A

Powered by AerisWeather